Regional Weather Roundup
Issued by NWS Upton, NY

Current Version | Previous Version | Text Only | Print | Product List | Glossary On
Versions: 1 2 3 4 5 6 7 8 9 10 11 12 13 14 15 16 17 18 19 20 21 22 23 24 25 26 27 28 29 30 31 32 33 34 35 36 37 38 39 40 41 42 43 44 45 46 47 48 49 50
000
ASUS41 KOKX 190305
RWROKX

REGIONAL WEATHER ROUNDUP
NATIONAL WEATHER SERVICE NEW YORK NY
1000 PM EST THU DEC 18 2014

NOTE: "FAIR" INDICATES FEW OR NO CLOUDS BELOW 12,000 FEET WITH NO
SIGNIFICANT WEATHER AND/OR OBSTRUCTIONS TO VISIBILITY.

NYZ071-072-176-178-NJZ106-104-190400-
NEW YORK CITY METRO AREA


CITY           SKY/WX    TMP DP  RH WIND       PRES   REMARKS
CENTRAL PARK   CLEAR     38  25  59 W8        29.99R WCI  32
LAGUARDIA APRT PTCLDY    38  27  64 W14       29.97R WCI  30
KENNEDY INTL   PTCLDY    39  26  59 W14       29.99R WCI  31
NEWARK/LIBERTY PTCLDY    37  27  67 W9        29.98S WCI  30
BRNX BOT. GARD   N/A    N/A N/A N/A W5        29.98R
TETERBORO      MOCLDY    37  26  64 W7        29.98R WCI  32
$$

NYZ177-179-078>081-190400-
LONG ISLAND NEW YORK

CITY           SKY/WX    TMP DP  RH WIND       PRES   REMARKS
FARMINGDALE    CLEAR     36  26  67 W6        29.97R WCI  31
ISLIP          PTCLDY    35  26  69 W8        29.94R WCI  29
SHIRLEY        CLEAR     34  26  72 W6        29.96R WCI  29
WESTHAMPTON    CLEAR     30  23  75 W6        29.96R WCI  24
MONTAUK POINT    N/A     39  27  62 NW9       29.92S WCI  33
$$

NYZ052-065-067-190400-
HUDSON VALLEY

CITY           SKY/WX    TMP DP  RH WIND       PRES   REMARKS
WHITE PLAINS   CLEAR     35  26  69 NW13      29.93R WCI  26
NEWBURGH       MOCLDY    34  27  75 NW12G24   29.95S WCI  25
MONTGOMERY     CLOUDY    36  24  62 NW9G18    29.93F WCI  29
POUGHKEEPSIE   CLOUDY    37  26  64 CALM      29.94S
ALBANY         CLOUDY    33  26  75 NW10      29.94F WCI  25
$$

NJZ001-105-106-008-010-013-015-019>022-104-190400-
NEW JERSEY

CITY           SKY/WX    TMP DP  RH WIND       PRES   REMARKS
NEWARK/LIBERTY PTCLDY    37  27  67 W9        29.98S WCI  30
TETERBORO      MOCLDY    37  26  64 W7        29.98R WCI  32
CALDWELL       CLOUDY    37  25  61 W7        29.99R WCI  32
MORRISTOWN       N/A     39  27  60 NW8       30.00R WCI  34
SOMERVILLE     CLOUDY    39  26  59 VRB5      29.99S
SUSSEX         CLOUDY    36  26  67 CALM      29.98R
ANDOVER          N/A     35  26  69 NW3       29.99R
TRENTON        CLOUDY    36  24  62 W6        30.01F WCI  31
MILLVILLE      CLOUDY    36  26  67 W10       30.05F WCI  28
ATLANTIC CITY  MOCLDY    35  25  66 W10       30.03F WCI  27
WRIGHTSTOWN    CLOUDY    35  26  67 W9        30.00F WCI  28
TOMS RIVER     PTCLDY    34  25  69 W8        30.02S WCI  27
BELMAR         CLEAR     36  21  55 W8        29.99S WCI  29
$$

PAZ047>061-062-071-190400-
EASTERN PENNSYLVANIA

CITY           SKY/WX    TMP DP  RH WIND       PRES   REMARKS
PHILADELPHIA   CLOUDY    38  25  59 W12       30.06S WCI  30
ALLENTOWN      CLOUDY    37  25  61 W8        30.01F WCI  31
SCRANTON       CLOUDY    34  24  67 W7        29.99S WCI  28
$$

CTZ002-004>006-009-010-012-RIZ004-006-007-MAZ004-011-015-190400-
SOUTHERN NEW ENGLAND
 IN CT

CITY           SKY/WX    TMP DP  RH WIND       PRES   REMARKS
BRADLEY INTL   CLOUDY    37  25  61 NW9       29.90F WCI  30
HARTFORD       CLOUDY    37  25  61 NW15G22   29.92S WCI  28
DANBURY        CLOUDY    34  24  67 VRB5      29.94R WCI  30
WTRBRY/OXFORD  CLOUDY    34  21  60 CALM      29.91S
BRIDGEPORT     CLEAR     35  26  69 SW3       29.94S
MERIDEN        CLOUDY    36  26  67 NW7       29.92S WCI  30
NEW HAVEN      CLEAR     39  26  59 NW7       29.93S WCI  34
CHESTER        CLOUDY    34  28  80 NW6       29.90F WCI  29
GROTON         CLEAR     33  26  75 NW3       29.90F
WILLIMANTIC    CLOUDY    37  25  61 NW8G20    29.90S WCI  31

 IN RI

CITY           SKY/WX    TMP DP  RH WIND       PRES   REMARKS
PROVIDENCE     PTCLDY    34  26  72 W5        29.88F WCI  30
BLOCK ISLAND   CLEAR     37  25  60 NW10G17   29.89F WCI  30
WESTERLY       CLEAR     34  26  72 VRB5      29.91S WCI  30

 IN MA

CITY           SKY/WX    TMP DP  RH WIND       PRES   REMARKS
BOSTON         MOCLDY    39  28  64 NW9       29.85S WCI  33
WORCESTER      CLOUDY    32  27  81 W9        29.83S WCI  24
WESTFIELD      CLOUDY    35  24  64 NW14      29.89F WCI  26
PROVINCETOWN   MOCLDY    39  28  65 NW17G26   29.83S WCI  30
NANTUCKET      CLEAR     37  28  70 W13       29.86R WCI  29
$$

ANZ330-335-338-340-345-350-353-355-190400-
COASTAL MARINE OBSERVATIONS


STATION/POSITION TIME  SKY/WX   TEMP    WIND        PRES    VSBY  WAVE
                                AIR SEA DIR/SP/G                  HT/PER
                 (UTC)          (F)     (DEG/KT/KT) (MB)    (MI)  (FT/S)
NY HARB ENTRANCE 0300            40 47  290/ 17/ 21 1015.3          2/ 4
4S FIRE IS       0300               47                N/A           2/ 4
20S FIRE ISLAND  0200            41 49              1014.9          4/ 5
23SW MTP         0300                                 N/A           4/ 6
HUDSON CANYON    0300            43 55  310/ 17/ 23 1014.4          6/ 7
EXECUTION ROCKS  0300            38 42  290/ 10/ 14   N/A
WESTERN LI SOUND 0300            39     290/ 12/ 16   N/A           1/ 2
CENTRAL LI SOUND 0200            39 44  300/ 16/ 17   N/A           3/ 5
EASTERN LI SOUND NOT AVBL
ROBBINS REEF     0300            38     310/  7/ 12 1014.1
$$


>>>>>>>>>>>>>>>>>>>>>>>>>>>> KEY <<<<<<<<<<<<<<<<<<<<<<<<<<<
>                                                          <
>     SKY/WX - SKY CONDITION/PRESENT WEATHER               <
>     TMP    - TEMPERATURE IN FAHRENHEIT                   <
>     DP     - DEWPOINT IN FAHRENHEIT                      <
>     RH     - RELATIVE HUMIDITY IN PERCENT                <
>     WIND   - DIRECTION AND SPEED IN MPH                  <
>     PRES   - MEAN SEA LEVEL PRESSURE IN INCHES OF HG     <
>     WCI    - WIND CHILL INDEX                            <
>     VSB    - VISIBILITY IN MILES                         <
>     HX     - HEAT INDEX                                  <
>     TC     - TEMPERATURE IN CELSIUS                      <
>     VRB    - VARIABLE WIND DIRECTION                     <
>                                                          <
>>>>>>>>>>>>>>>>>>>>>>>>>>>> KEY <<<<<<<<<<<<<<<<<<<<<<<<<<<




USA.gov is the U.S. government's official web portal to all federal, state and local government web resources and services.